Terminal Aerodrome Forecast
Issued by NWS Huntsville, AL

Home | Current Version | Previous Version | Text Only | Print | Product List | Glossary On
Versions: 1 2 3 4 5 6 7 8 9 10 11 12 13 14 15 16 17 18 19 20 21 22 23 24 25 26
000
FTUS44 KHUN 200753 AAB
TAFMSL
TAF AMD
KMSL 200753Z 2008/2106 00000KT 3SM BR SCT002
      TEMPO 2008/2012 1SM BR BKN002
     FM201200 00000KT 4SM BR SCT001
     FM201400 26006KT P6SM SCT120 BKN200
     FM210000 27003KT P6SM SKC=

USA.gov is the U.S. government's official web portal to all federal, state and local government web resources and services.